Du Bois, PA

9:53 PM EDT on May 27, 2018 (GMT -0400)
Du Bois-Jefferson County

Weather History for KDUJ - October, 2014

Change the Weather History Date:

Sunday, October 5, 2014

  Actual Average Record
Temperature  
Mean Temperature 42 °F 52 °F  
Max Temperature 47 °F 62 °F 83 °F (2007)
Min Temperature 36 °F 43 °F 28 °F (1965)
Degree Days  
Heating Degree Days 23 13  
Month to date heating degree days 53 60  
Since 1 July heating degree days 290 306  
Cooling Degree Days 0 0  
Month to date cooling degree days 0 0  
Year to date cooling degree days 410 360  
Moisture  
Dew Point 33 °F    
Average Humidity 71    
Maximum Humidity 89    
Minimum Humidity 53    
Precipitation  
Precipitation 0.00 in 0.11 in 6.94 in (1997)
Month to date precipitation 0.36 0.53  
Year to date precipitation 33.77  
Sea Level Pressure  
Sea Level Pressure 29.84 in    
Wind  
Wind Speed 10 mph (SW)    
Max Wind Speed 22 mph    
Max Gust Speed 28 mph    
Visibility 10 miles    
Events      
T = Trace of Precipitation, MM = Missing Value Source: NWS Daily Summary

Daily Weather History Graph

Daily Weather History Graph

Search for Another Location

Airport or City:

Astronomy

Oct. 05, 2014 Rise Set
Actual Time 7:16 AM EDT 6:50 PM EDT
Civil Twilight 6:48 AM EDT 7:18 PM EDT
Nautical Twilight 6:16 AM EDT 7:50 PM EDT
Astronomical Twilight 5:44 AM EDT 8:22 PM EDT
Moon 5:08 PM EDT (10/5) 3:49 AM EDT (10/5)
Length of Visible Light 12h 29m
Length of Day
11h 34m
Waxing Gibbous, 89% of the Moon is Illuminated
Oct 5
Waxing Gibbous
Oct 8
Full
Oct 15
Last Quarter
Oct 23
New
Oct 30
First Quarter

Hourly Weather History & Observations

Time (EDT) Temp. Windchill Dew Point Humidity Pressure Visibility Wind Dir Wind Speed Gust Speed Precip Events Conditions
12:53 AM 35.1 °F 27.4 °F 32.0 °F 89% 29.76 in 10.0 mi WSW 10.4 mph - N/A   Partly Cloudy
1:53 AM 36.0 °F 28.0 °F 32.0 °F 86% 29.77 in 10.0 mi WSW 11.5 mph - N/A   Partly Cloudy
2:53 AM 37.0 °F 29.8 °F 33.1 °F 86% 29.76 in 10.0 mi SW 10.4 mph - N/A   Overcast
3:53 AM 37.9 °F 29.6 °F 33.1 °F 83% 29.76 in 10.0 mi WSW 13.8 mph 19.6 mph N/A   Overcast
4:53 AM 39.0 °F 31.8 °F 34.0 °F 82% 29.76 in 10.0 mi WSW 11.5 mph - N/A   Overcast
5:53 AM 39.0 °F 30.6 °F 34.0 °F 82% 29.78 in 10.0 mi WSW 15.0 mph - N/A   Overcast
6:53 AM 39.0 °F 31.8 °F 34.0 °F 82% 29.81 in 10.0 mi WSW 11.5 mph - N/A   Overcast
7:53 AM 39.0 °F 32.3 °F 34.0 °F 82% 29.83 in 10.0 mi SW 10.4 mph - N/A   Overcast
8:53 AM 39.0 °F 31.8 °F 34.0 °F 82% 29.86 in 10.0 mi SW 11.5 mph - N/A   Overcast
9:38 AM 39.9 °F 32.1 °F 34.0 °F 79% 29.83 in 10.0 mi WSW 13.8 mph - N/A   Overcast
9:53 AM 39.9 °F 32.5 °F 35.1 °F 83% 29.87 in 10.0 mi WSW 12.7 mph - N/A   Overcast
10:53 AM 42.1 °F 35.7 °F 35.1 °F 76% 29.87 in 10.0 mi WSW 11.5 mph 20.7 mph N/A   Overcast
11:53 AM 44.1 °F 38.1 °F 33.1 °F 65% 29.87 in 10.0 mi SW 11.5 mph 21.9 mph N/A   Overcast
12:23 PM 44.1 °F 38.1 °F 34.0 °F 68% 29.84 in 10.0 mi SW 11.5 mph - N/A   Overcast
12:37 PM 46.0 °F 41.0 °F 34.0 °F 63% 29.84 in 10.0 mi SW 10.4 mph 21.9 mph N/A   Overcast
12:53 PM 45.0 °F 38.2 °F 32.0 °F 60% 29.87 in 10.0 mi SW 15.0 mph 19.6 mph N/A   Overcast
1:53 PM 45.0 °F 39.7 °F 33.1 °F 63% 29.86 in 10.0 mi SW 10.4 mph - N/A   Overcast
2:53 PM 46.0 °F 39.6 °F 32.0 °F 58% 29.86 in 10.0 mi SW 15.0 mph - N/A   Overcast
3:53 PM 46.0 °F 40.2 °F 30.9 °F 56% 29.86 in 10.0 mi WSW 12.7 mph - N/A   Overcast
4:53 PM 45.0 °F 39.3 °F 32.0 °F 60% 29.86 in 10.0 mi WSW 11.5 mph - N/A   Overcast
5:53 PM 45.0 °F 41.8 °F 33.1 °F 63% 29.87 in 10.0 mi South 5.8 mph - N/A   Overcast
6:53 PM 43.0 °F 41.3 °F 32.0 °F 65% 29.88 in 10.0 mi Variable 3.5 mph - N/A   Overcast
7:53 PM 43.0 °F 40.3 °F 33.1 °F 68% 29.89 in 10.0 mi SE 4.6 mph - N/A   Overcast
8:53 PM 43.0 °F 39.5 °F 33.1 °F 68% 29.90 in 10.0 mi SSE 5.8 mph - N/A   Overcast
9:53 PM 42.1 °F 38.4 °F 33.1 °F 70% 29.91 in 10.0 mi SSE 5.8 mph - N/A   Overcast
10:53 PM 42.1 °F 38.4 °F 33.1 °F 70% 29.92 in 10.0 mi SSE 5.8 mph - N/A   Mostly Cloudy
11:53 PM 43.0 °F 38.8 °F 33.1 °F 68% 29.91 in 10.0 mi SE 6.9 mph - N/A   Overcast